Regional Weather Roundup
Issued by NWS

Home | Current Version | Previous Version | Text Only | Print | Product List | Glossary Off
Versions: 1 2 3 4 5 6 7 8 9 10 11 12 13 14 15 16 17 18 19 20 21 22 23 24 25 26 27 28 29 30 31 32 33 34 35 36 37 38 39 40 41 42 43 44 45 46 47 48 49 50

000
ASUS45 KCYS 290010
RWRWY

WYOMING REGIONAL WEATHER ROUNDUP
NATIONAL WEATHER SERVICE CHEYENNE WY
600 PM MDT FRI AUG 28 2015

NOTE:  "FAIR" INDICATES FEW OR NO CLOUDS BELOW 12,000 FEET
WITH NO SIGNIFICANT WEATHER AND/OR OBSTRUCTIONS TO VISIBILITY.

WYZ001-290100-
YELLOWSTONE NATIONAL PARK

CITY           SKY/WX    TMP DP  RH WIND       PRES   REMARKS
LK YELLOWSTONE   N/A     70  27  20 VRB6      30.37S
6HR MIN TEMP:  58; 6HR MAX TEMP:  74;

W YELLOWSTONE  NOT AVBL

$$
WYZ002>013-054>058-071-098>099-290100-
NORTHERN WYOMING

CITY           SKY/WX    TMP DP  RH WIND       PRES   REMARKS
JACKSON        FAIR      79  37  22 SW5       30.24F
CODY           FAIR      82  39  21 SE10      30.11F
GREYBULL       FAIR      89  37  16 S8        30.04S
6HR MIN TEMP:  74; 6HR MAX TEMP:  89;

WORLAND        FAIR      86  46  24 N3        30.06F
6HR MIN TEMP:  71; 6HR MAX TEMP:  88;

SHERIDAN       FAIR      88  42  20 NW5       30.06S HAZE
6HR MIN TEMP:  85; 6HR MAX TEMP:  91;

BUFFALO        FAIR      85  39  19 SE7       30.14S
6HR MIN TEMP:  82; 6HR MAX TEMP:  87;

GILLETTE       FAIR      86  40  19 CALM      30.09S
6HR MIN TEMP:  81; 6HR MAX TEMP:  87;

HULETT         FAIR      82  43  24 NW3       30.11R
NEWCASTLE      FAIR      84  34  16 NW3       30.10S

$$
WYZ014>020-022>026-101>103-290100-
CENTRAL WYOMING

CITY           SKY/WX    TMP DP  RH WIND       PRES   REMARKS
BIG PINEY      PTSUNNY   77  33  20 SW7       30.30S
6HR MIN TEMP:  71; 6HR MAX TEMP:  83;

PINEDALE       FAIR      77  28  16 NW7       30.31S
DUBOIS         FAIR      73  27  17 NW12      30.29S
LANDER         FAIR      85  39  19 VRB5      30.15S
6HR MIN TEMP:  74; 6HR MAX TEMP:  86;

RIVERTON       FAIR      84  35  17 E8        30.17S
6HR MIN TEMP:  71; 6HR MAX TEMP:  85;

CASPER         FAIR      83  33  16 S10       30.17S
6HR MIN TEMP:  76; 6HR MAX TEMP:  85;

DOUGLAS        FAIR      85  34  16 W3        30.16S
6HR MIN TEMP:  81; 6HR MAX TEMP:  88;


$$
WYZ021-027>030-104>119-290100-
SOUTHERN WYOMING

CITY           SKY/WX    TMP DP  RH WIND       PRES   REMARKS
EVANSTON       PTSUNNY   81  33  17 VRB7      30.30S
6HR MIN TEMP:  75; 6HR MAX TEMP:  83;

KEMMERER       FAIR      81  28  15 W6        30.31F
FORT BRIDGER   CLEAR     82  28  14 N7        30.32S
ROCK SPRINGS   FAIR      81  29  15 NE6       30.28S
6HR MIN TEMP:  72; 6HR MAX TEMP:  82;

DIXON          FAIR      82  29  15 NW3       30.30S
RAWLINS        FAIR      79  31  17 N5        30.30S
6HR MIN TEMP:  72; 6HR MAX TEMP:  80;

SARATOGA       FAIR      73  36  25 NE7       30.33S
LARAMIE        FAIR      72  37  28 NW5       30.34R
6HR MIN TEMP:  68; 6HR MAX TEMP:  75;

CHEYENNE       FAIR      78  38  23 NE5       30.26R
6HR MIN TEMP:  73; 6HR MAX TEMP:  81;

TORRINGTON     FAIR      87  39  18 N5        30.10S
6HR MIN TEMP:  83; 6HR MAX TEMP:  89;

PINE BLUFFS    FAIR      81  36  19 NE9       30.20S

$$


USA.gov is the U.S. government's official web portal to all federal, state and local government web resources and services.